Location: Figeirolles
(44.3159°N, 3.9057°E)
Time: 04:03:38
(UTC+00:00)

Daily predictions for brighter satellites

Satellite Brightness Start Highest point End
(mag) Time Altitude Azimuth Time Altitude Azimuth Time Altitude Azimuth
Cosmos 2184 Rocket 4.5 00:01:06 10° NNW 00:06:08 56° NW 00:06:08 56° NW
Cosmos 1844 4.5 00:09:36 49° NNE 00:09:36 49° NNE 00:13:45 10° NNE
Meteor 1-11 Rocket 4.4 00:11:57 10° N 00:16:34 56° N 00:16:34 56° N
SJ 16-02 3.8 00:25:14 17° ENE 00:25:14 17° ENE 00:26:38 10° NE
Cosmos 1844 Rocket 3.8 00:46:55 36° NW 00:46:55 36° NW 00:51:28 10° NNE
Resurs 1-4 Rocket 2.9 00:56:45 10° NNE 01:01:06 46° ENE 01:01:06 46° ENE
USA 234 4.3 00:56:44 10° ENE 01:01:54 31° ESE 01:01:54 31° ESE
SL-4 R/B 3.7 01:05:32 37° NE 01:05:32 37° NE 01:09:06 10° E
Cosmos 2082 Rocket 3.4 01:00:31 10° NNW 01:05:44 37° NE 01:08:14 25° ESE
Cosmos 864 Rocket 4.5 00:59:46 10° N 01:06:02 73° E 01:06:03 73° E
Cosmos 2218 Rocket 3.9 01:00:55 10° N 01:06:59 79° ENE 01:06:59 79° ENE
Cosmos 1959 Rocket 4.4 01:03:10 10° N 01:09:32 80° E 01:09:34 80° E
CZ-4C R/B 3.7 01:04:35 10° NNW 01:11:31 51° NE 01:19:33 10° ESE
Cosmos 1833 Rocket 2.9 01:06:18 10° NNW 01:11:25 68° NNE 01:11:25 68° NNE
Cosmos 2366 rocket 3.9 01:09:07 10° N 01:15:08 85° NNE 01:15:08 85° NNE
Helios 1B rocket 4.0 01:12:26 10° NNE 01:14:52 33° NNE 01:14:52 33° NNE
CZ-2D R/B 2.4 01:11:10 10° NNE 01:16:14 64° ENE 01:16:14 64° ENE
SL-16 R/B 2.5 01:19:17 72° SE 01:19:51 79° ENE 01:26:09 10° NNW
USA 281 4.4 01:24:57 27° WNW 01:24:57 27° WNW 01:28:45 10° NW
Cosmos 2278 Rocket 2.2 01:30:00 80° N 01:30:00 80° N 01:35:24 10° NNE
Cosmos 1943 Rocket 4.2 01:29:11 16° ESE 01:30:52 18° E 01:34:34 10° ENE
Cosmos 1898 Rocket 4.3 01:31:54 41° ESE 01:31:58 41° ESE 01:36:55 10° NE
ADEOS II 2.8 01:29:34 10° NNE 01:34:35 44° E 01:35:02 43° ESE
Meteor 2-9 Rocket 4.2 01:37:08 10° NNW 01:42:55 75° W 01:42:55 75° W
Nadezhda 3 Rocket 4.3 01:41:59 47° SE 01:43:34 61° E 01:49:48 10° NNE
Gbstr 26 Del rocket 4.1 01:46:45 46° WNW 01:48:06 56° NNW 01:53:17 10° ENE
ATLAS 5 CENTAUR R/B 2.2 01:42:45 10° NW 01:48:22 72° WSW 01:48:22 72° WSW
Cosmos 1238 Rocket 4.4 01:43:20 10° NNW 01:49:15 47° W 01:49:15 47° W
Cosmos 1703 Rocket 4.0 01:51:28 58° ENE 01:51:28 58° ENE 01:55:15 10° NNE
COSMOS 2406 3.8 01:46:12 10° NW 01:50:17 42° WNW 01:50:17 42° WNW
Cosmos 2112 Rocket 4.3 01:47:13 10° NNW 01:52:32 65° ENE 01:54:18 41° SE
Cosmos 1782 Rocket 4.3 01:50:09 10° N 01:54:30 49° ENE 01:55:05 46° ESE
NOSS 3-4 (A) 4.4 01:48:45 10° NNW 01:55:36 57° NE 02:03:13 10° SE
NOSS 3-4 (C) 4.4 01:48:52 10° NNW 01:55:43 57° NE 02:03:20 10° SE
NPP 3.6 01:52:06 10° N 01:57:28 69° WNW 01:57:40 69° W
IDEFIX/ARIANE 42P 3.8 01:52:55 10° NNE 01:57:42 35° E 01:59:37 27° SE
X-37B 3.4 02:00:53 15° E 02:00:53 15° E 02:01:35 10° E
IRS-1D 3.8 01:54:52 10° NNE 02:00:01 62° ESE 02:00:56 53° SE
SJ 16-02 2.6 02:02:12 31° NW 02:02:12 31° NW 02:05:28 10° N
Cosmos 1975 4.4 01:57:57 10° NNW 02:00:00 27° NNW 02:00:00 27° NNW
NOSS 3-3 (A) 4.1 02:02:18 49° W 02:03:28 58° NW 02:09:59 10° NNE
NOSS 3-3 (C) 4.1 02:02:25 50° W 02:03:34 58° NW 02:10:05 10° NNE
Cosmos 2297 4.4 02:02:44 38° SSE 02:04:14 47° ESE 02:09:42 10° NE
BREEZE-M DEB (TANK) 4.2 02:06:12 42° S 02:06:12 42° S 02:17:49 10° SE
Okean 1-7 3.1 02:09:59 71° N 02:09:59 71° N 02:13:50 10° N
ATLAS 2AS CENTAUR R/B 3.8 02:02:45 10° NNW 02:09:52 45° NE 02:16:27 10° ESE
Cosmos 1378 3.5 02:18:53 58° ENE 02:18:53 58° ENE 02:22:20 10° NNE
DELTA 2 R/B (1) 3.6 02:23:21 53° S 02:23:37 53° S 02:29:02 10° ESE
CZ-4C R/B 3.5 02:23:10 61° SSE 02:23:56 85° ENE 02:28:23 10° NNW
ADEOS Rocket 3.2 02:21:30 18° SSE 02:26:27 86° ENE 02:33:38 10° NNW
Cosmos 1680 Rocket 3.5 02:21:29 10° NNW 02:26:41 57° WSW 02:27:05 55° SW
Cosmos 489 Rocket 4.5 02:21:50 10° NNW 02:28:04 80° ENE 02:34:17 10° SSE
Meteor 1-13 Rocket 4.2 02:34:31 39° SSW 02:36:48 85° W 02:42:32 10° N
Meteor 2-4 Rocket 4.3 02:38:27 38° WSW 02:39:49 44° WNW 02:45:27 10° N
Resurs 1-4 Rocket 3.4 02:37:13 10° N 02:41:21 24° WNW 02:42:11 23° WNW
Meteor 1-12 Rocket 4.3 02:35:31 10° NNW 02:41:32 76° W 02:45:21 23° S
Cosmos 1805 3.9 02:37:49 10° N 02:41:41 55° E 02:44:09 20° SSE
SL-4 R/B 2.2 02:41:12 21° WNW 02:44:27 69° SW 02:49:11 10° SE
Sich 1 Rocket 3.6 02:41:05 10° N 02:45:42 85° E 02:48:26 24° S
USA 234 3.2 02:39:18 10° NE 02:45:53 79° NW 02:49:15 31° WSW
Cosmos 2082 Rocket 2.7 02:44:42 10° NW 02:49:46 35° WSW 02:50:01 35° WSW
CZ-2C R/B 4.1 02:50:56 10° NE 02:55:11 30° E 02:59:31 10° SSE
CZ-2D R/B 3.7 02:52:17 10° NNW 02:56:10 20° WNW 02:57:34 18° W
Cosmos 1356 Rocket 3.3 02:52:14 10° NNW 02:56:22 79° W 02:58:36 27° S
Meteor 1-28 Rocket 4.2 02:58:47 29° WNW 02:58:47 29° WNW 03:01:21 10° NNW
CZ-4C R/B 3.2 02:53:10 10° NW 03:00:16 48° WSW 03:08:17 10° S
MSX 3.8 02:55:12 10° NNE 03:01:00 89° ESE 03:05:02 21° SSW
IRS-P3 4.1 02:57:52 10° N 03:03:14 76° WNW 03:06:22 26° SSW
SL-16 R/B 4.0 03:04:22 18° W 03:04:22 18° W 03:08:10 10° NW
Cosmos 1937 Rocket 4.1 03:05:39 29° WSW 03:07:33 41° WNW 03:12:25 10° N
Cosmos 1727 Rocket 4.4 03:01:43 10° S 03:07:49 63° E 03:14:02 10° NNE
Cosmos 2084 4.1 03:08:33 29° W 03:10:02 40° NW 03:14:06 10° NNE
ARIANE 5 R/B 2.5 03:07:23 10° NNE 03:12:38 79° WNW 03:16:19 20° SSW
Cosmos 1943 Rocket 2.2 03:10:43 26° SW 03:13:59 70° WNW 03:19:39 10° NNE
ADEOS II 3.3 03:09:43 10° N 03:14:03 27° WNW 03:15:59 21° W
Cosmos 2278 Rocket 4.1 03:11:50 12° WNW 03:14:39 17° NW 03:18:17 10° N
Cosmos 1842 3.6 03:17:39 12° S 03:21:10 65° E 03:25:01 10° NNE
Cosmos 44 4.5 03:17:09 10° NNW 03:22:29 51° NE 03:27:38 10° SE
Milstar 3 4.2 03:20:33 19° SW 03:24:29 28° S 03:33:19 10° ESE
Spot 4 Rocket 4.1 03:19:55 10° NNE 03:25:06 85° ESE 03:30:16 10° SSW
PAYLOAD A 4.3 03:20:35 10° NNE 03:25:40 65° ESE 03:30:31 10° S
GP-B 4.1 03:21:38 10° NNE 03:25:56 47° E 03:30:12 10° SSE
Meteor 1-15 Rocket 4.4 03:22:13 10° NNW 03:27:36 51° W 03:33:01 10° SSW
Cosmos 2298 Rocket 4.1 03:24:39 14° SSW 03:29:18 84° ESE 03:34:39 10° NNE
Cosmos 372 Rocket 4.3 03:26:24 22° SW 03:29:24 47° WNW 03:34:21 10° N
FALCON 9 DEB 3.9 03:30:20 26° SSW 03:30:20 26° SSW 03:32:33 10° SSE
ATLAS 5 CENTAUR R/B 4.3 03:29:39 10° W 03:29:45 10° W 03:29:45 10° W
X-37B 0.7 03:33:10 22° W 03:35:05 77° N 03:38:16 10° E
CZ-2D R/B 3.6 03:31:49 10° N 03:35:53 56° WNW 03:39:12 15° SSW
Cosmos 2151 Rocket 3.7 03:31:42 10° NNW 03:36:07 53° W 03:40:31 10° S
Okean 2 3.6 03:32:55 10° S 03:37:01 71° E 03:41:11 10° NNE
Cosmos 1300 Rocket 4.3 03:33:05 10° NNW 03:37:02 32° W 03:39:59 16° SW
IDEFIX/ARIANE 42P 3.5 03:32:36 10° N 03:37:12 32° WNW 03:40:26 17° WSW
Cosmos 2369 Rocket 2.1 03:34:19 14° SSW 03:39:08 79° WNW 03:44:47 10° NNE
Okean 2 Rocket 3.7 03:36:23 10° NNW 03:40:27 36° W 03:44:24 10° SSW
CZ-3B R/B 3.8 03:25:17 16° SW 03:41:38 85° NW 03:46:21 10° NE
DNEPR-1 R/B 4.2 03:38:35 14° SW 03:44:05 84° NW 03:49:18 10° NE
CZ-2C R/B 2.7 03:40:58 10° NNE 03:44:46 85° WNW 03:48:37 10° SSW
BREEZE-M DEB (TANK) 4.5 03:44:47 10° S 03:46:02 12° SSE 03:47:04 10° SE
NOSS 3-4 (A) 4.3 03:39:56 10° NW 03:46:26 38° WSW 03:53:33 10° S
NOSS 3-4 (C) 4.3 03:40:01 10° NW 03:46:33 38° WSW 03:53:41 10° S
Cosmos 1484 Rocket 4.4 03:44:19 10° NNE 03:48:03 36° E 03:51:45 10° SSE
Cosmos 1125 Rocket 3.5 03:45:12 10° SSW 03:50:30 88° WNW 03:55:48 10° NNE
BREEZE-M DEB (TANK) 2.5 03:49:48 12° WNW 03:51:38 43° SSW 03:55:34 10° SE
SL-08 R/B 4.2 03:48:36 10° SSW 03:52:54 30° W 03:57:09 10° NW
Cosmos 1758 4.1 03:49:33 10° N 03:53:36 58° E 03:57:37 10° SSE
Cosmos 1766 4.3 03:52:58 10° NNW 03:56:24 28° W 03:59:47 10° SSW
CZ-4B R/B 4.5 03:52:47 10° N 03:56:46 27° WNW 04:00:24 12° WSW
H-2A R/B 4.3 03:54:56 10° SE 03:58:38 30° ENE 04:02:26 10° N
ATLAS 2AS CENTAUR R/B 3.0 03:54:00 10° NW 04:00:52 47° WSW 04:07:13 10° S
Cosmos 1802 Rocket 4.2 03:55:58 10° N 04:02:16 80° E 04:08:26 10° S
Okean 1 Rocket 3.2 03:59:54 10° NNW 04:04:17 56° W 04:08:37 10° S
CZ-4C R/B 3.9 04:03:35 10° SSE 04:06:59 53° ENE 04:10:20 10° N
Cosmos 2150 Rocket 4.4 04:02:45 10° SW 04:08:03 51° WNW 04:13:20 10° NNE
FENGYUN 3A 3.7 04:02:39 10° NNE 04:08:05 87° ESE 04:13:27 10° SSW
DELTA 2 R/B (1) 4.1 04:04:27 10° W 04:09:37 40° SSW 04:14:48 10° SE
Landsat 5 4.0 04:05:33 10° SSE 04:10:00 73° ENE 04:14:32 10° N
Cosmos 1315 Rocket 3.9 04:11:17 10° N 04:15:07 49° ENE 04:18:55 10° SSE
Cosmos 1656 Rocket 3.7 04:13:14 10° SW 04:18:35 61° WNW 04:24:00 10° NNE
SL-27 R/B 2.2 04:16:27 10° NNW 04:19:45 64° WSW 04:23:00 10° S
